EW5171 Weather Reports


time (UTC)temp
C
wind
direction
speed
KPH
gust
KPH
rain 1hr
cm
rain 24hr
cm
rain mn
cm
humidity
%
barometer
mb
20260508151016 16 167 3.2 9.7 0.00 0.00 0.00 43 1023.1
20260508150517 15 90 3.2 9.7 0.00 0.00 0.00 45 1023.1
20260508150016 15 136 3.2 11.3 0.00 0.00 0.00 45 1023.1
20260508145514 16 195 3.2 9.7 0.00 0.00 0.00 45 1023.2
20260508145014 15 175 4.8 9.7 0.00 0.00 0.00 42 1023.2
20260508144524 15 235 4.8 14.5 0.00 0.00 0.00 42 1023.2
20260508144013 16 209 4.8 14.5 0.00 0.00 0.00 46 1023.3
20260508143512 16 99 1.6 9.7 0.00 0.00 0.00 46 1023.3
20260508143011 16 173 1.6 9.7 0.00 0.00 0.00 48 1023.3
20260508142510 16 155 1.6 9.7 0.00 0.00 0.00 50 1023.4
20260508142015 16 183 1.6 9.7 0.00 0.00 0.00 51 1023.4
20260508141512 16 97 1.6 8.0 0.00 0.00 0.00 49 1023.4
20260508141009 16 181 3.2 11.3 0.00 0.00 0.00 50 1023.4
20260508140509 16 194 3.2 11.3 0.00 0.00 0.00 51 1023.4
20260508140019 16 180 1.6 12.9 0.00 0.00 0.00 51 1023.4
20260508135510 16 157 1.6 12.9 0.00 0.00 0.00 51 1023.4
20260508135010 16 150 3.2 8.0 0.00 0.00 0.00 50 1023.5
20260508134508 15 219 3.2 11.3 0.00 0.00 0.00 50 1023.5
20260508134007 15 123 3.2 14.5 0.00 0.00 0.00 51 1023.5
20260508133507 15 202 4.8 14.5 0.00 0.00 0.00 54 1023.5
20260508133006 16 192 4.8 11.3 0.00 0.00 0.00 60 1023.6
20260508132508 16 50 1.6 9.7 0.00 0.00 0.00 62 1023.6
20260508132004 16 121 4.8 9.7 0.00 0.00 0.00 64 1023.6
20260508131503 16 117 3.2 11.3 0.00 0.00 0.00 66 1023.7
20260508131004 15 83 1.6 9.7 0.00 0.00 0.00 66 1023.7
20260508130503 15 118 3.2 9.7 0.00 0.00 0.00 66 1023.7
20260508130001 16 71 1.6 9.7 0.00 0.00 0.00 67 1023.7
20260508125600 15 16 1.6 9.7 0.00 0.00 0.00 67 1023.7
20260508125058 15 124 3.2 9.7 0.00 0.00 0.00 68 1023.7
20260508124558 15 135 1.6 8.0 0.00 0.00 0.00 71 1023.7
20260508124057 15 117 3.2 8.0 0.00 0.00 0.00 69 1023.7
20260508123557 15 101 4.8 9.7 0.00 0.00 0.00 68 1023.7
20260508123114 15 60 3.2 11.3 0.00 0.00 0.00 69 1023.7
20260508122555 15 189 4.8 11.3 0.00 0.00 0.00 67 1023.7
20260508122056 15 162 3.2 12.9 0.00 0.00 0.00 68 1023.7
20260508121607 15 60 4.8 12.9 0.00 0.00 0.00 67 1023.7
20260508121054 15 72 4.8 11.3 0.00 0.00 0.00 66 1023.6
20260508120553 15 169 3.2 11.3 0.00 0.00 0.00 67 1023.6
20260508120108 15 182 4.8 12.9 0.00 0.00 0.00 66 1023.7
20260508115553 15 171 4.8 12.9 0.00 0.00 0.00 63 1023.8
20260508115051 15 155 3.2 12.9 0.00 0.00 0.00 62 1023.8
20260508114559 15 166 4.8 12.9 0.00 0.00 0.00 63 1023.7
20260508114053 15 107 4.8 12.9 0.00 0.00 0.00 61 1023.7
20260508113553 15 139 3.2 12.9 0.00 0.00 0.00 64 1023.6
20260508113103 15 180 4.8 12.9 0.00 0.00 0.00 62 1023.6
20260508112548 15 355 3.2 11.3 0.00 0.00 0.00 62 1023.6
20260508112047 15 236 3.2 11.3 0.00 0.00 0.00 62 1023.6
20260508111550 15 128 4.8 12.9 0.00 0.00 0.00 62 1023.7
20260508111049 15 100 4.8 11.3 0.00 0.00 0.00 62 1023.7
20260508110546 15 128 3.2 8.0 0.00 0.00 0.00 65 1023.7
20260508110045 15 141 3.2 16.1 0.00 0.00 0.00 64 1023.7
20260508105545 15 203 4.8 12.9 0.00 0.00 0.00 62 1023.6
20260508105044 15 122 3.2 12.9 0.00 0.00 0.00 61 1023.7
20260508104547 15 213 3.2 14.5 0.00 0.00 0.00 61 1023.6
20260508104043 15 78 1.6 11.3 0.00 0.00 0.00 59 1023.6
20260508103542 15 110 3.2 11.3 0.00 0.00 0.00 62 1023.6
20260508103054 15 86 3.2 9.7 0.00 0.00 0.00 61 1023.6
20260508102539 14 175 3.2 12.9 0.00 0.00 0.00 63 1023.5
20260508102038 14 73 4.8 14.5 0.00 0.00 0.00 61 1023.6
20260508101544 14 182 6.4 14.5 0.00 0.00 0.00 62 1023.5
20260508101037 14 167 4.8 9.7 0.00 0.00 0.00 62 1023.5
20260508100536 14 17 3.2 11.3 0.00 0.00 0.00 61 1023.5
20260508100035 14 148 3.2 14.5 0.00 0.00 0.00 60 1023.4
20260508095537 13 21 4.8 14.5 0.00 0.00 0.00 57 1023.4
20260508095034 14 185 4.8 12.9 0.00 0.00 0.00 57 1023.4
20260508094535 14 159 4.8 9.7 0.00 0.00 0.00 53 1023.4
20260508094034 15 242 1.6 12.9 0.00 0.00 0.00 53 1023.4
20260508093533 14 52 4.8 12.9 0.00 0.00 0.00 54 1023.5
20260508093038 14 205 3.2 11.3 0.00 0.00 0.00 56 1023.4
20260508092531 14 164 3.2 11.3 0.00 0.00 0.00 56 1023.4
20260508092030 15 118 3.2 11.3 0.00 0.00 0.00 55 1023.5
20260508091533 15 76 3.2 9.7 0.00 0.00 0.00 56 1023.4
20260508091029 15 174 3.2 8.0 0.00 0.00 0.00 57 1023.4
20260508090528 15 93 3.2 8.0 0.00 0.00 0.00 57 1023.5
20260508090025 15 69 3.2 9.7 0.00 0.00 0.00 58 1023.4
20260508085527 14 55 1.6 9.7 0.00 0.00 0.00 64 1023.4
20260508085024 14 186 1.6 9.7 0.00 0.00 0.00 64 1023.4
20260508084523 14 122 3.2 9.7 0.00 0.00 0.00 63 1023.4
20260508084021 14 36 1.6 6.4 0.00 0.00 0.00 64 1023.4
20260508083521 14 200 1.6 9.7 0.00 0.00 0.00 64 1023.3
20260508083018 14 33 1.6 6.4 0.00 0.00 0.00 64 1023.3
20260508082522 14 110 1.6 6.4 0.00 0.00 0.00 64 1023.2
20260508082018 13 67 3.2 8.0 0.00 0.00 0.00 64 1023.3
20260508081517 14 202 3.2 6.4 0.00 0.00 0.00 62 1023.3
20260508081017 13 43 1.6 6.4 0.00 0.00 0.00 62 1023.2
20260508080513 13 200 1.6 8.0 0.00 0.00 0.00 62 1023.2
20260508080013 13 63 1.6 8.0 0.00 0.00 0.00 63 1023.3
20260508075512 13 127 3.2 6.4 0.00 0.00 0.00 62 1023.2
20260508075010 13 297 1.6 11.3 0.00 0.00 0.00 64 1023.1
20260508074514 13 186 4.8 11.3 0.00 0.00 0.00 62 1023.1
20260508074008 13 174 1.6 8.0 0.00 0.00 0.00 64 1023.1
20260508073507 13 67 3.2 8.0 0.00 0.00 0.00 63 1023.1
20260508073006 13 218 3.2 9.7 0.00 0.00 0.00 63 1023.1
20260508072505 13 83 1.6 9.7 0.00 0.00 0.00 65 1023.1
20260508072003 13 205 3.2 9.7 0.00 0.00 0.00 65 1023.0
20260508071505 13 109 1.6 6.4 0.00 0.00 0.00 69 1023.1
20260508071100 12 105 1.6 6.4 0.00 0.00 0.00 70 1023.1
20260508070602 12 52 1.6 9.7 0.00 0.00 0.00 70 1023.0
20260508070059 12 92 3.2 9.7 0.00 0.00 0.00 68 1022.9
20260508065557 12 128 1.6 6.4 0.00 0.00 0.00 70 1022.8
20260508065055 12 61 1.6 8.0 0.00 0.00 0.00 72 1022.8
20260508064555 12 94 1.6 8.0 0.00 0.00 0.00 72 1022.8
20260508064052 12 89 1.6 8.0 0.00 0.00 0.00 74 1022.7
20260508063551 11 77 1.6 8.0 0.00 0.00 0.00 75 1022.7
20260508063101 11 202 0.0 6.4 0.00 0.00 0.00 77 1022.7
20260508062551 11 194 3.2 6.4 0.00 0.00 0.00 78 1022.6
20260508062046 11 76 1.6 6.4 0.00 0.00 0.00 80 1022.5
20260508061547 11 245 1.6 4.8 0.00 0.00 0.00 84 1022.5
20260508061043 10 76 0.0 4.8 0.00 0.00 0.00 87 1022.4
20260508060541 10 164 1.6 3.2 0.00 0.00 0.00 91 1022.3
20260508060040 9 165 1.6 4.8 0.00 0.00 0.00 93 1022.2
20260508055538 9 76 0.0 3.2 0.00 0.00 0.00 96 1022.2
20260508055037 8 158 0.0 3.2 0.00 0.00 0.00 96 1022.1
20260508054536 8 165 1.6 3.2 0.00 0.00 0.00 97 1022.2
20260508054035 8 182 0.0 3.2 0.00 0.00 0.00 97 1022.1
20260508053533 7 194 0.0 3.2 0.00 0.00 0.00 97 1022.1
20260508053032 7 198 0.0 1.6 0.00 0.00 0.00 97 1022.0
20260508052530 7 198 0.0 1.6 0.00 0.00 0.00 97 1022.0
20260508052030 6 198 0.0 0.0 0.00 0.00 0.00 97 1022.0
20260508051527 6 198 0.0 0.0 0.00 0.00 0.00 97 1022.0
20260508051027 5 198 0.0 0.0 0.00 0.00 0.00 96 1022.0
20260508050525 5 198 0.0 0.0 0.00 0.00 0.00 96 1021.9
20260508050033 5 198 0.0 0.0 0.00 0.00 0.00 97 1021.8
20260508045524 5 198 0.0 0.0 0.00 0.00 0.00 97 1021.8
20260508045021 5 198 0.0 0.0 0.00 0.00 0.00 97 1021.8
20260508044520 5 198 0.0 0.0 0.00 0.00 0.00 97 1021.8
20260508044020 4 198 0.0 0.0 0.00 0.00 0.00 97 1021.7
20260508043519 3 198 0.0 0.0 0.00 0.00 0.00 96 1021.7
20260508043018 3 198 0.0 0.0 0.00 0.00 0.00 96 1021.7
20260508042518 2 198 0.0 0.0 0.00 0.00 0.00 95 1021.8
20260508042022 2 198 0.0 0.0 0.00 0.00 0.00 95 1021.7
20260508041520 2 198 0.0 0.0 0.00 0.00 0.00 94 1021.7
20260508041018 2 198 0.0 0.0 0.00 0.00 0.00 94 1021.8
20260508040518 3 198 0.0 0.0 0.00 0.00 0.00 95 1021.7
20260508040016 3 198 0.0 0.0 0.00 0.00 0.00 95 1021.7
20260508035515 3 198 0.0 0.0 0.00 0.00 0.00 95 1021.8
20260508035015 3 198 0.0 0.0 0.00 0.00 0.00 95 1021.7
20260508034515 3 198 0.0 0.0 0.00 0.00 0.00 95 1021.7
20260508034014 3 198 0.0 0.0 0.00 0.00 0.00 95 1021.7
20260508033513 3 198 0.0 0.0 0.00 0.00 0.00 95 1021.7
20260508033012 3 198 0.0 0.0 0.00 0.00 0.00 96 1021.6
20260508032512 3 198 0.0 0.0 0.00 0.00 0.00 96 1021.6
20260508032011 3 198 0.0 0.0 0.00 0.00 0.00 95 1021.6
20260508031511 3 198 0.0 0.0 0.00 0.00 0.00 95 1021.6
20260508031011 3 198 0.0 0.0 0.00 0.00 0.00 95 1021.6
20260508030511 3 198 0.0 0.0 0.00 0.00 0.00 94 1021.6
20260508030011 3 198 0.0 0.0 0.00 0.00 0.00 94 1021.6
20260508025509 3 198 0.0 0.0 0.00 0.00 0.00 94 1021.5
20260508025010 4 198 0.0 0.0 0.00 0.00 0.00 95 1021.5
20260508024509 4 198 0.0 0.0 0.00 0.00 0.00 95 1021.5
20260508024009 4 198 0.0 0.0 0.00 0.00 0.00 95 1021.5
20260508023509 4 198 0.0 0.0 0.00 0.00 0.00 95 1021.5
20260508023008 4 198 0.0 0.0 0.00 0.00 0.00 95 1021.4
20260508022511 3 198 0.0 0.0 0.00 0.00 0.00 95 1021.5
20260508022008 3 198 0.0 0.0 0.00 0.00 0.00 95 1021.5
20260508021507 3 198 0.0 0.0 0.00 0.00 0.00 95 1021.5
20260508021009 3 198 0.0 0.0 0.00 0.00 0.00 95 1021.4
20260508020506 3 198 0.0 0.0 0.00 0.00 0.00 95 1021.4
20260508020006 3 198 0.0 0.0 0.00 0.00 0.00 94 1021.3
20260508015506 3 198 0.0 0.0 0.00 0.00 0.00 94 1021.3
20260508015005 3 198 0.0 0.0 0.00 0.00 0.00 94 1021.3
20260508014505 3 198 0.0 0.0 0.00 0.00 0.00 94 1021.2
20260508014005 3 198 0.0 0.0 0.00 0.00 0.00 93 1021.3
20260508013504 3 198 0.0 0.0 0.00 0.00 0.00 94 1021.2
20260508013003 4 198 0.0 0.0 0.00 0.00 0.00 94 1021.1
20260508012506 3 198 0.0 0.0 0.00 0.00 0.00 94 1021.1
20260508012003 3 198 0.0 0.0 0.00 0.00 0.00 94 1021.0
20260508011502 3 198 0.0 0.0 0.00 0.00 0.00 94 1021.1
20260508011002 3 198 0.0 0.0 0.00 0.00 0.00 95 1021.0
20260508010502 3 198 0.0 0.0 0.00 0.00 0.00 95 1021.1
20260508010001 3 198 0.0 0.0 0.00 0.00 0.00 94 1021.1
20260508005503 3 198 0.0 0.0 0.00 0.00 0.00 94 1021.1
20260508005001 2 198 0.0 0.0 0.00 0.00 0.00 93 1021.0
20260508004501 2 198 0.0 0.0 0.00 0.00 0.00 93 1021.0
20260508004104 2 198 0.0 0.0 0.00 0.00 0.00 93 1021.0
20260508003600 2 198 0.0 0.0 0.00 0.00 0.00 92 1021.0
20260508003100 2 198 0.0 0.0 0.00 0.00 0.00 92 1021.0
20260508002558 2 198 0.0 0.0 0.00 0.00 0.00 92 1020.9
20260508002057 2 198 0.0 0.0 0.00 0.00 0.00 92 1020.9
20260508001617 2 198 0.0 0.0 0.00 0.00 0.00 92 1020.9
20260508001057 2 198 0.0 0.0 0.00 0.00 0.00 93 1020.8
20260508000557 2 198 0.0 0.0 0.00 0.00 0.00 92 1020.9
20260508000056 2 198 0.0 0.0 0.00 0.00 0.00 91 1020.8
20260507235557 2 198 0.0 0.0 0.00 0.00 0.00 91 1020.8
20260507235053 3 198 0.0 1.6 0.00 0.00 0.00 91 1020.8
20260507234553 3 198 0.0 0.0 0.00 0.00 0.00 92 1020.8
20260507234106 3 198 0.0 0.0 0.00 0.00 0.00 92 1020.8
20260507233551 3 198 0.0 0.0 0.00 0.00 0.00 92 1020.8
20260507233051 3 198 0.0 0.0 0.00 0.00 0.00 92 1020.7
20260507232550 3 198 0.0 0.0 0.00 0.00 0.00 92 1020.7
20260507232049 3 198 0.0 0.0 0.00 0.00 0.00 91 1020.6
20260507231548 3 198 0.0 0.0 0.00 0.00 0.00 91 1020.6
20260507231047 3 198 0.0 0.0 0.00 0.00 0.00 91 1020.6
20260507230547 3 198 0.0 0.0 0.00 0.00 0.00 91 1020.5
20260507230046 3 198 0.0 0.0 0.00 0.00 0.00 91 1020.4
20260507225548 3 198 0.0 0.0 0.00 0.00 0.00 91 1020.5
20260507225045 3 198 0.0 0.0 0.00 0.00 0.00 91 1020.4
20260507224552 3 198 0.0 0.0 0.00 0.00 0.00 90 1020.4
20260507224043 4 198 0.0 0.0 0.00 0.00 0.00 91 1020.4
20260507223542 4 198 0.0 0.0 0.00 0.00 0.00 90 1020.4
20260507223042 4 198 0.0 0.0 0.00 0.00 0.00 90 1020.3
20260507222541 4 198 0.0 0.0 0.00 0.00 0.00 90 1020.2
20260507222044 5 198 0.0 0.0 0.00 0.00 0.00 91 1020.1
20260507221539 5 198 0.0 0.0 0.00 0.00 0.00 90 1020.1
20260507221039 4 198 0.0 0.0 0.00 0.00 0.00 90 1020.2
20260507220539 4 198 0.0 0.0 0.00 0.00 0.00 90 1020.3
20260507220043 4 198 0.0 0.0 0.00 0.00 0.00 89 1020.3
20260507215537 5 198 0.0 0.0 0.00 0.00 0.00 89 1020.2
20260507215039 5 198 0.0 0.0 0.00 0.00 0.00 89 1020.2
20260507214538 5 198 0.0 0.0 0.00 0.00 0.00 89 1020.2
20260507214037 5 198 0.0 0.0 0.00 0.00 0.00 89 1020.1
20260507213537 5 198 0.0 0.0 0.00 0.00 0.00 89 1020.1
20260507213036 5 198 0.0 0.0 0.00 0.00 0.00 89 1020.1
20260507212535 5 198 0.0 0.0 0.00 0.00 0.00 89 1020.1
20260507212036 5 198 0.0 0.0 0.00 0.00 0.00 89 1020.1
20260507211536 5 198 0.0 0.0 0.00 0.00 0.00 89 1020.1
20260507211034 5 198 0.0 0.0 0.00 0.00 0.00 88 1020.0
20260507210536 5 198 0.0 0.0 0.00 0.00 0.00 87 1020.0
20260507210034 5 198 0.0 0.0 0.00 0.00 0.00 86 1019.9
20260507205535 5 198 0.0 0.0 0.00 0.00 0.00 86 1019.8
20260507205034 5 198 0.0 0.0 0.00 0.00 0.00 85 1019.8
20260507204533 6 198 0.0 0.0 0.00 0.00 0.00 85 1019.8
20260507204034 6 198 0.0 0.0 0.00 0.00 0.00 85 1019.7
20260507203533 6 198 0.0 0.0 0.00 0.00 0.00 85 1019.7
20260507203034 6 198 0.0 0.0 0.00 0.00 0.00 85 1019.7
20260507202531 6 198 0.0 0.0 0.00 0.00 0.00 84 1019.7
20260507202030 6 198 0.0 0.0 0.00 0.00 0.00 84 1019.7
20260507201531 7 198 0.0 0.0 0.00 0.00 0.00 83 1019.6
20260507201030 7 198 0.0 0.0 0.00 0.00 0.00 83 1019.6
20260507200532 7 198 0.0 0.0 0.00 0.00 0.00 83 1019.6
20260507200030 7 198 0.0 0.0 0.00 0.00 0.00 82 1019.6
20260507195529 7 198 0.0 0.0 0.00 0.00 0.00 82 1019.5
20260507195029 7 198 0.0 0.0 0.00 0.00 0.00 81 1019.5
20260507194529 8 198 0.0 0.0 0.00 0.00 0.00 81 1019.5
20260507194027 8 198 0.0 0.0 0.00 0.00 0.00 80 1019.5
20260507193527 8 198 0.0 0.0 0.00 0.00 0.00 79 1019.4
20260507193031 8 198 0.0 0.0 0.00 0.00 0.00 79 1019.4
20260507192526 8 198 0.0 0.0 0.00 0.00 0.00 78 1019.4
20260507192026 9 198 0.0 0.0 0.00 0.00 0.00 78 1019.3
20260507191526 9 198 0.0 0.0 0.00 0.00 0.00 77 1019.3
20260507191025 9 198 0.0 0.0 0.00 0.00 0.00 77 1019.2
20260507190525 10 198 0.0 0.0 0.00 0.00 0.00 76 1019.2
20260507190025 10 198 0.0 0.0 0.00 0.00 0.00 76 1019.1
20260507185523 10 198 0.0 0.0 0.00 0.00 0.00 75 1019.1
20260507185026 10 198 0.0 0.0 0.00 0.00 0.00 75 1019.1
20260507184523 11 198 0.0 3.2 0.00 0.00 0.00 74 1019.0
20260507184027 11 198 0.0 3.2 0.00 0.00 0.00 74 1018.9
20260507183523 11 198 0.0 4.8 0.00 0.00 0.00 73 1019.0
20260507183023 11 198 1.6 4.8 0.00 0.00 0.00 73 1019.0
20260507182523 11 153 0.0 6.4 0.00 0.00 0.00 73 1018.9
20260507182022 11 202 1.6 6.4 0.00 0.00 0.00 72 1018.9
20260507181521 11 140 1.6 3.2 0.00 0.00 0.00 72 1018.9
20260507181022 11 150 0.0 4.8 0.00 0.00 0.00 72 1018.9
20260507180523 11 168 1.6 4.8 0.00 0.00 0.00 72 1018.8
20260507180020 11 188 1.6 4.8 0.00 0.00 0.00 72 1018.8
20260507175520 11 185 1.6 4.8 0.00 0.00 0.00 72 1018.7
20260507175023 11 188 0.0 4.8 0.00 0.00 0.00 72 1018.7
20260507174532 11 188 1.6 4.8 0.00 0.00 0.00 72 1018.7
20260507174018 11 174 1.6 6.4 0.00 0.00 0.00 72 1018.6
20260507173518 11 193 1.6 8.0 0.00 0.00 0.00 71 1018.6
20260507173019 11 153 1.6 9.7 0.00 0.00 0.00 71 1018.6
20260507172519 12 190 3.2 9.7 0.00 0.00 0.00 71 1018.5
20260507172016 12 152 4.8 11.3 0.00 0.00 0.00 70 1018.5
20260507171518 12 204 1.6 8.0 0.00 0.00 0.00 70 1018.4
20260507171019 12 181 1.6 8.0 0.00 0.00 0.00 69 1018.4
20260507170515 12 183 3.2 8.0 0.00 0.00 0.00 69 1018.4
20260507170021 12 188 1.6 6.4 0.00 0.00 0.00 69 1018.3
20260507165515 12 178 1.6 6.4 0.00 0.00 0.00 69 1018.3
20260507165015 12 185 1.6 6.4 0.00 0.00 0.00 68 1018.3
20260507164515 12 188 0.0 6.4 0.00 0.00 0.00 70 1018.2
20260507164017 12 172 3.2 8.0 0.00 0.00 0.00 68 1018.3
20260507163515 12 129 1.6 9.7 0.00 0.00 0.00 68 1018.3
20260507163014 12 105 1.6 6.4 0.00 0.00 0.00 67 1018.3
20260507162513 12 202 1.6 6.4 0.00 0.00 0.00 67 1018.3
20260507162013 12 55 1.6 9.7 0.00 0.00 0.00 67 1018.3
20260507161513 12 92 1.6 8.0 0.00 0.00 0.00 68 1018.3
20260507161013 12 168 3.2 8.0 0.00 0.00 0.00 68 1018.3
20260507160513 12 144 4.8 8.0 0.00 0.00 0.00 68 1018.3
20260507160015 12 165 3.2 11.3 0.00 0.00 0.00 67 1018.4
20260507155512 12 196 3.2 11.3 0.00 0.00 0.00 68 1018.3
20260507155012 12 192 1.6 9.7 0.00 0.00 0.00 70 1018.3
20260507154512 12 217 3.2 8.0 0.00 0.00 0.00 70 1018.3
20260507154014 12 186 3.2 8.0 0.00 0.00 0.00 69 1018.3
20260507153512 12 160 1.6 8.0 0.00 0.00 0.00 69 1018.3
20260507153015 12 188 1.6 6.4 0.00 0.00 0.00 69 1018.3
20260507152513 12 179 3.2 9.7 0.00 0.00 0.00 69 1018.3
20260507152015 12 126 3.2 9.7 0.00 0.00 0.00 68 1018.3
20260507151510 12 182 1.6 8.0 0.00 0.00 0.00 70 1018.3